Regional Weather Roundup
Issued by NWS Green Bay, WI

Home | Current Version | Previous Version | Text Only | Print | Product List | Glossary On
Versions: 1 2 3 4 5 6 7 8 9 10 11 12 13 14 15 16 17 18 19 20 21 22 23 24 25 26 27 28 29 30 31 32 33 34 35 36 37 38 39 40 41 42 43 44 45 46 47 48 49 50
000
ASUS43 KGRB 150259
RWRGRB

NORTH-CENTRAL AND NORTHEAST WISCONSIN REGIONAL WEATHER ROUNDUP
NATIONAL WEATHER SERVICE GREEN BAY WI
1000 PM CDT SUN SEP 14 2014

WIZ005-009-010>012-018-019-150400-
NORTH CENTRAL WISCONSIN

CITY           SKY/WX    TMP DP  RH WIND       PRES   REMARKS
IRONWOOD       PTCLDY    45  43  93 W7        30.06S
MANITOWISH WTR NOT AVBL
ARBOR VITAE    PTCLDY    46  43  88 CALM      30.09S
EAGLE RIVER    NOT AVBL
LAND O LAKES   NOT AVBL
RHINELANDER    PTCLDY    45  40  82 W3        30.10R
PHILLIPS       PTCLDY    44  42  95 CALM      30.09F
ANTIGO         NOT AVBL
TOMAHAWK       NOT AVBL
MERRILL        NOT AVBL
$$

WIZ013-073-150400-
NORTHEAST WISCONSIN

CITY           SKY/WX    TMP DP  RH WIND       PRES   REMARKS
IRON MOUNTAIN  PTCLDY    49  43  80 CALM      30.06S
MARINETTE      PTCLDY    55  46  71 CALM      30.06S
$$

WIZ017-030-035>037-045-150400-
CENTRAL WISCONSIN

CITY           SKY/WX    TMP DP  RH WIND       PRES   REMARKS
MEDFORD        NOT AVBL
WAUSAU         MOCLDY    54  44  69 NW5       30.08F
MOSINEE        NOT AVBL
MARSHFIELD     CLOUDY    53  43  68 NW6       30.10S
WISC RAPIDS    MOCLDY    55  51  86 CALM      30.11S
STEVENS POINT  NOT AVBL
WAUPACA        NOT AVBL
SHAWANO        MOCLDY    57  50  78 CALM      30.09S
CLINTONVILLE   CLOUDY    57  46  67 CALM      30.09S
$$

WIZ038-039-048-051-150400-
FOX VALLEY

CITY           SKY/WX    TMP DP  RH WIND       PRES   REMARKS
NWS GREEN BAY  MOCLDY    56  50  80 W5        30.10R
APPLETON       MOCLDY    57  48  72 SW6       30.11R
OSHKOSH        CLOUDY    57  49  74 SW9       30.11R
FOND DU LAC    MOCLDY    57  47  69 SW9       30.12S
$$

WIZ022-050-052-150400-
EAST CENTRAL WISCONSIN

CITY           SKY/WX    TMP DP  RH WIND       PRES   REMARKS
STURGEON BAY   MOCLDY    55  46  71 SW6       30.09S
MANITOWOC      NOT AVBL
SHEBOYGAN      MOCLDY    54  47  77 SW7       30.13R
$$

LMZ563-521-522-541>543-150400-
LAKESHORE

STATION/POSITION TIME  TEMP    WIND        PRES    VSBY  WAVE
                       AIR SEA DIR/SP/G                  HT/PER
                 (UTC) (F)     (DEG/KT/KT) (MB)    (MI)  (FT/S)
SHEBOYGAN LKSHOR 0200   59 51  210/ 11/ 13 1020.4S
KEWAUNEE LKSHORE 0200   57     210/  8/ 12 1017.9F
NORTHPORT PIER   0200   56     190/  3/  8 1018.3S
N MID LAKE BUOY  0200   59 59  220/ 21/ 27 1017.7R         7/ 7
S GREEN BAY BUOY 0200   61     VRB 10/ 14  1019.4R
CHAMBERS ISLAND  0200   58     180/  3/  7 1018.3S
MENOMINEE LKSHOR 0200   58     220/  5/  7 1018.7S
$$



USA.gov is the U.S. government's official web portal to all federal, state and local government web resources and services.